Miscellaneous Local Product
Issued by NWS North Platte, NE

Home | Current Version | Previous Version | Graphics & Text | Print | Product List | Glossary On
Versions: 1 2 3 4 5 6 7 8 9 10 11 12 13 14 15 16 17 18 19 20 21 22 23 24 25 26 27 28 29 30 31 32 33 34 35 36 37 38 39 40 41 42 43 44 45 46 47 48 49 50
000
AXUS43 KLBF 182010
MISLBF


WESTERN AND NORTH CENTRAL NEBRASKA HOURLY WEATHER ROUNDUP
NATIONAL WEATHER SERVICE NORTH PLATTE NE
300 PM CDT TUE JUL 18 2017

NOTE: "FAIR" INDICATES FEW OR NO CLOUDS BELOW 12,000 FEET WITH NO
SIGNIFICANT WEATHER AND/OR OBSTRUCTIONS TO VISIBILITY.

NOTE: STATIONS NOT REPORTING VARIABLES SUCH AS SKY/WEATHER OR
PRESSURE ARE PROVIDED BY RAWS AND APRS NETWORKS AND ARE NOT UNDER
NATIONAL WEATHER SERVICE QUALITY CONTROL.

...OBSERVATIONS IN AND NEAR THE EASTERN PANHANDLE OF NEBRASKA...

CITY           SKY/WX    TMP DP  RH WIND       PRES   REMARKS
GORDON         FAIR      82  64  54 E5G16     30.09F
CHADRON        SUNNY     87  61  41 NE8       30.06F
ALLIANCE       CLOUDY    88  61  40 NE12      30.09F
SIDNEY         SUNNY     91  59  33 NE10      30.12F HX  90
CRESCENT LAKE    N/A     87  68  52 SE5         N/A  HX  90
$$

...OBSERVATIONS IN NORTHERN NEBRASKA AND FAR SOUTHERN SOUTH DAKOTA...

CITY           SKY/WX    TMP DP  RH WIND       PRES   REMARKS
WINNER         FAIR      88  64  44 E12       30.02F
VALENTINE      CLOUDY    88  59  37 E8        30.04S
THEDFORD       CLOUDY    91  65  43 NE9       30.05S HX  92
AINSWORTH      CLOUDY    84  65  52 E5        30.04S
O`NEILL        PTSUNNY   85  69  57 NE10      30.01F
ORD            SUNNY     86  67  52 CALM      30.00S
BROKEN BOW     MOSUNNY   87  70  56 E7        30.03R HX  92
VALENTINE NWR    N/A     81  65  58 NE6G13      N/A
HALSEY           N/A     89  64  43 E6G13       N/A  HX  90
BUTTE            N/A     84  67  57 NE3         N/A
CHAMBERS         N/A     90  67  46 E3          N/A  HX  93
EWING            N/A     87  71  58 NE3         N/A  HX  92
$$

...OBSERVATIONS IN SOUTHWEST NEBRASKA AND FAR NORTHEAST COLORADO...

CITY           SKY/WX    TMP DP  RH WIND       PRES   REMARKS
HOLYOKE        FAIR      97  61  30 NE6       30.05F HX  97
IMPERIAL       SUNNY     97  59  28 N8        30.02S HX  96
OGALLALA       SUNNY     93  64  37 NE7       30.04S HX  95
NORTH PLATTE   SUNNY     91  69  48 E7        30.02F HX  96
MCCOOK         MOSUNNY   95  68  41 MISG      29.98S HX  99
LEXINGTON      MOSUNNY   85  71  63 E7        30.02F HX  90
STAPLETON        N/A     85  68  56 CALM        N/A
GOTHENBURG       N/A     85  67  54 NE5         N/A
CALLAWAY         N/A     87  74  65 CALM        N/A  HX  95
$$

...OBSERVATIONS IN CENTRAL LINCOLN COUNTY AREA...

CITY           SKY/WX    TMP DP  RH WIND       PRES   REMARKS
N.P. AIRPORT   SUNNY     91  69  48 E7        30.02F HX  96
N.P. DOWNTOWN    N/A     89  71  54 E5G12       N/A  HX  94
N.P. SOUTHEAST   N/A     90  70  51 CALM        N/A  HX  95
N.P. HILLCREST   N/A     88  69  53 E10         N/A  HX  92
$$

...SOME OBSERVATIONS FROM AROUND THE REGION...

CITY           SKY/WX    TMP DP  RH WIND       PRES   REMARKS
DENVER         MOSUNNY   91  44  19 N12G24    30.16F
LIMON          SUNNY     90  46  21 S8        30.17S
ASPEN          CLOUDY    80  41  24 E3        30.34F
LARAMIE        MOSUNNY   81  37  20 MISG      30.30F
CASPER         MOSUNNY   90  32  12 W10       30.12F
CHEYENNE       SUNNY     88  43  20 VRB3      30.23S
SCOTTSBLUFF    SUNNY     87  59  38 VRB5      30.10S
GRAND ISLAND   CLOUDY    86  71  60 CALM      30.01S HX  91
OMAHA          CLOUDY    90  70  51 S13       29.99S HX  95
SIOUX FALLS    MOSUNNY   83  71  67 E12       29.99F
PIERRE         SUNNY     84  59  42 NW7       30.01F
RAPID CITY     SUNNY     85  58  39 S14G20    30.08F
BISMARCK       SUNNY     81  59  47 E6        30.07F
KANSAS CITY    MOSUNNY   91  70  49 S13       30.03F HX  96
HILL CITY      SUNNY    100  65  31 S12       29.94S HX 103
WICHITA        MOSUNNY   96  69  41 S18G26    29.98F HX 102
DODGE CITY     SUNNY     99  61  28 S21G28    29.98F HX  99
OKLAHOMA CITY  PTSUNNY   95  65  37 S12G22    30.03F HX  97
DALLAS         PTSUNNY   94  71  47 S8        30.00F HX 101
AMARILLO       MOSUNNY   95  61  32 S10G21    30.10F HX  95
$$




USA.gov is the U.S. government's official web portal to all federal, state and local government web resources and services.